Weather History for Hayward, CA

Change the Weather History Date:

Tuesday, June 10, 2014

  Actual Average Record
Temperature  
Mean Temperature 62 °F 63 °F  
Max Temperature 72 °F 71 °F 89 °F (2002)
Min Temperature 51 °F 55 °F 51 °F (1999)
Degree Days  
Heating Degree Days 3    
Month to date heating degree days 41  
Since 1 June heating degree days 41  
Since 1 July heating degree days 2141  
Cooling Degree Days 0    
Month to date cooling degree days 10  
Year to date cooling degree days 60  
Since 1 June cooling degree days 10  
Growing Degree Days 11 (Base 50)    
Moisture  
Dew Point 54 °F    
Average Humidity 79    
Maximum Humidity 100    
Minimum Humidity 57    
Precipitation  
Precipitation 0.00 in - 0.00 in (2014)
Month to date precipitation 0.00  
Year to date precipitation 4.68  
Since 1 July precipitation 5.88  
Sea Level Pressure  
Sea Level Pressure 29.80 in    
Wind  
Wind Speed 10 mph (NW)    
Max Wind Speed 21 mph    
Max Gust Speed 25 mph    
Visibility 10 miles    
Events      
T = Trace of Precipitation, MM = Missing Value Source: NWS Daily Summary

Daily Weather History Graph

Daily Weather History Graph

Search for Another Location

Airport:

Trip Planner

Search our weather history database for the weather conditions in past years. The results will help you decide how hot, cold, wet, or windy it might be!

Date:

Astronomy

Jun. 10, 2014 Rise Set
Actual Time 5:46 AM PDT 8:29 PM PDT
Civil Twilight 5:15 AM PDT 9:00 PM PDT
Nautical Twilight 4:36 AM PDT 9:39 PM PDT
Astronomical Twilight 3:52 AM PDT 10:23 PM PDT
Moon 6:03 PM PDT (6/10) 3:52 AM PDT (6/10)
Length of Visible Light 15h 45m
Length of Day
14h 43m
Waxing Gibbous, 93% of the Moon is Illuminated
Jun 10
Waxing Gibbous
Jun 12
Full
Jun 19
Last Quarter
Jun 27
New
Jul 5
First Quarter

Hourly Weather History & Observations

Time (PDT) Temp. Dew Point Humidity Pressure Visibility Wind Dir Wind Speed Gust Speed Precip Events Conditions
12:54 AM 55.9 °F 53.1 °F 90% 29.75 in 10.0 mi NNW 5.8 mph - N/A   Clear
1:54 AM 54.0 °F 54.0 °F 100% 29.75 in 10.0 mi NW 4.6 mph - N/A   Clear
2:54 AM 53.1 °F 53.1 °F 100% 29.75 in 10.0 mi NNW 5.8 mph - N/A   Clear
3:54 AM 54.0 °F 54.0 °F 100% 29.75 in 10.0 mi NNW 5.8 mph - N/A   Clear
4:54 AM 51.1 °F 51.1 °F 100% 29.75 in 10.0 mi NNW 5.8 mph - N/A   Clear
5:54 AM 52.0 °F 52.0 °F 100% 29.76 in 10.0 mi NNW 4.6 mph - N/A   Clear
6:54 AM 53.1 °F 53.1 °F 100% 29.78 in 10.0 mi WNW 3.5 mph - N/A   Clear
8:01 AM 57.2 °F 55.4 °F 94% 29.76 in 10.0 mi NW 4.6 mph - N/A   Overcast
8:54 AM 60.1 °F 57.0 °F 90% 29.80 in 10.0 mi Variable 3.5 mph - N/A   Scattered Clouds
10:54 AM 66.0 °F 57.0 °F 73% 29.81 in 10.0 mi WNW 11.5 mph 17.3 mph N/A   Clear
12:54 PM 69.1 °F 55.0 °F 61% 29.81 in 10.0 mi NNW 12.7 mph - N/A   Clear
2:54 PM 71.1 °F 55.0 °F 57% 29.81 in 10.0 mi NW 15.0 mph - N/A   Clear
3:54 PM 71.1 °F 55.0 °F 57% 29.81 in 10.0 mi NW 16.1 mph - N/A   Clear
4:54 PM 66.9 °F 54.0 °F 63% 29.81 in 10.0 mi NW 18.4 mph - N/A   Clear
5:54 PM 63.0 °F 54.0 °F 72% 29.81 in 10.0 mi NNW 18.4 mph 25.3 mph N/A   Clear
6:54 PM 62.1 °F 54.0 °F 75% 29.81 in 10.0 mi NW 13.8 mph - N/A   Clear
8:54 PM 57.9 °F 54.0 °F 87% 29.83 in 10.0 mi NNW 8.1 mph - N/A   Scattered Clouds
9:03 PM 57.2 °F 55.4 °F 94% 29.80 in 10.0 mi North 6.9 mph - N/A   Mostly Cloudy
9:54 PM 57.9 °F 55.0 °F 90% 29.85 in 10.0 mi West 6.9 mph - N/A   Mostly Cloudy
10:54 PM 57.0 °F 55.0 °F 93% 29.86 in 10.0 mi WNW 9.2 mph - N/A   Scattered Clouds
11:08 PM 57.2 °F 55.4 °F 94% 29.83 in 10.0 mi WNW 11.5 mph - N/A   Mostly Cloudy
11:39 PM 57.2 °F 55.4 °F 94% 29.82 in 10.0 mi WNW 9.2 mph - N/A   Scattered Clouds
11:54 PM 57.0 °F 55.9 °F 96% 29.84 in 10.0 mi West 8.1 mph - N/A   Scattered Clouds